EW4338 Weather Reports


time (UTC)temp
F
wind
direction
speed
knots
gust
knots
rain 1hr
in
rain 24hr
in
rain mn
in
humidity
%
barometer
mb
20210801201020 69 90 0.0 5.2 0.00 0.68 0.00 54 1029.7
20210801200523 69 100 0.0 5.2 0.00 0.68 0.00 55 1029.7
20210801200034 69 100 0.0 5.2 0.00 0.68 0.00 55 1029.9
20210801195520 69 100 0.0 4.3 0.00 0.68 0.00 54 1029.9
20210801195022 69 105 0.9 4.3 0.00 0.68 0.00 56 1030.0
20210801194540 69 92 0.0 3.5 0.00 0.68 0.00 57 1030.2
20210801194017 69 81 0.0 1.7 0.00 0.68 0.00 59 1030.2
20210801193520 68 85 0.0 0.9 0.00 0.68 0.00 58 1030.3
20210801193027 67 71 0.0 0.9 0.00 0.68 0.00 60 1030.4
20210801192515 67 103 0.0 1.7 0.00 0.68 0.00 58 1030.4
20210801192014 67 67 0.0 4.3 0.00 0.68 0.00 59 1030.5
20210801191526 66 115 0.0 4.3 0.00 0.68 0.00 60 1030.6
20210801191014 66 52 0.0 3.5 0.00 0.68 0.00 62 1030.6
20210801190513 66 98 0.9 3.5 0.00 0.68 0.00 62 1030.7
20210801190122 66 102 0.0 5.2 0.00 0.68 0.00 65 1030.8
20210801185514 66 111 0.0 5.2 0.00 0.68 0.00 64 1030.8
20210801185013 66 132 0.0 3.5 0.00 0.68 0.00 64 1030.9
20210801184558 66 119 0.0 5.2 0.00 0.68 0.00 63 1030.9
20210801184018 66 102 0.0 5.2 0.00 0.68 0.00 62 1031.0
20210801183520 67 103 0.0 3.5 0.00 0.68 0.00 62 1031.0
20210801183019 67 103 0.0 4.3 0.00 0.68 0.00 61 1031.0
20210801182536 68 104 0.0 4.3 0.00 0.68 0.00 66 1031.1
20210801182012 67 102 0.0 8.7 0.00 0.68 0.00 63 1031.1
20210801181513 68 103 1.7 8.7 0.00 0.68 0.00 64 1031.2
20210801181009 67 92 0.0 1.7 0.00 0.68 0.00 69 1031.2
20210801180511 66 94 0.0 1.7 0.00 0.68 0.00 67 1031.2
20210801180016 65 92 0.0 2.6 0.00 0.68 0.00 71 1031.3
20210801175509 65 73 0.0 2.6 0.00 0.68 0.00 71 1031.3
20210801175009 65 56 0.0 2.6 0.00 0.68 0.00 70 1031.3
20210801174513 65 91 0.0 0.9 0.00 0.68 0.00 68 1031.4
20210801174009 65 71 0.0 4.3 0.00 0.68 0.00 70 1031.5
20210801173551 65 102 0.0 2.6 0.00 0.68 0.00 72 1031.6
20210801173021 64 82 0.0 2.6 0.00 0.68 0.00 71 1031.7
20210801172508 64 79 0.0 5.2 0.00 0.68 0.00 71 1031.7
20210801172011 64 52 0.0 5.2 0.00 0.68 0.00 70 1031.7
20210801171508 65 67 0.9 4.3 0.00 0.68 0.00 69 1031.7
20210801171006 65 71 0.0 1.7 0.00 0.68 0.00 71 1031.8
20210801170508 65 86 0.0 2.6 0.00 0.68 0.00 69 1031.7
20210801170014 64 68 0.0 7.0 0.00 0.68 0.00 71 1031.7
20210801165505 64 63 0.0 7.0 0.00 0.68 0.00 69 1031.7
20210801165011 64 78 0.0 2.6 0.00 0.68 0.00 69 1031.7
20210801164511 64 79 0.0 2.6 0.00 0.68 0.00 69 1031.8
20210801164004 65 73 0.0 2.6 0.00 0.68 0.00 68 1031.7
20210801163505 66 74 0.0 2.6 0.00 0.68 0.00 67 1031.7
20210801163006 66 72 0.0 1.7 0.00 0.68 0.00 66 1031.7
20210801162509 67 91 0.0 2.6 0.00 0.68 0.00 63 1031.8
20210801162003 66 98 0.0 2.6 0.00 0.68 0.00 66 1031.7
20210801161057 65 106 0.0 2.6 0.00 0.68 0.00 67 1031.8
20210801160556 64 108 0.0 3.5 0.00 0.68 0.00 60 1031.7
20210801160201 64 105 0.0 3.5 0.00 0.68 0.00 58 1031.8
20210801155527 65 94 0.0 2.6 0.00 0.68 0.00 64 1031.7
20210801155034 65 80 0.0 0.9 0.00 0.68 0.00 73 1031.6
20210801154539 64 104 0.0 2.6 0.00 0.68 0.00 68 1031.7
20210801154024 63 102 0.0 2.6 0.00 0.68 0.00 57 1031.6
20210801153557 64 104 0.0 1.7 0.00 0.68 0.00 60 1031.6
20210801153028 65 112 0.0 0.0 0.00 0.68 0.00 62 1031.6
20210801152520 65 103 0.0 0.0 0.00 0.68 0.00 61 1031.6
20210801152030 66 100 0.0 0.0 0.00 0.68 0.00 60 1031.6
20210801151549 65 106 0.0 0.0 0.00 0.68 0.00 57 1031.6
20210801151029 64 13 0.0 0.0 0.00 0.68 0.00 62 1031.6
20210801150521 63 13 0.0 0.0 0.00 0.68 0.00 61 1031.6
20210801150026 63 146 0.0 0.0 0.00 0.68 0.00 59 1031.7
20210801145518 62 146 0.0 0.0 0.00 0.68 0.00 61 1031.8
20210801145009 61 146 0.0 0.0 0.00 0.68 0.00 59 1031.7
20210801144512 61 146 0.0 0.0 0.00 0.68 0.00 60 1031.6
20210801144013 60 152 0.0 0.0 0.00 0.68 0.00 63 1031.6
20210801143505 60 153 0.0 0.0 0.00 0.68 0.00 63 1031.6
20210801143015 60 153 0.0 0.0 0.00 0.68 0.00 68 1031.6
20210801142504 60 153 0.0 0.0 0.00 0.68 0.00 67 1031.6
20210801142004 59 153 0.0 0.0 0.00 0.68 0.00 67 1031.7
20210801141743 59 153 0.0 0.0 0.00 0.68 0.00 67 1031.7
20210801141216 59 153 0.0 0.0 0.00 0.68 0.00 66 1031.6
20210801140608 59 153 0.0 0.0 0.00 0.68 0.00 66 1031.7
20210801140147 59 153 0.0 0.0 0.00 0.68 0.00 68 1031.6
20210801135619 59 153 0.0 0.0 0.00 0.68 0.00 66 1031.6
20210801135101 58 153 0.0 0.0 0.00 0.68 0.00 69 1031.5
20210801134715 58 153 0.0 0.0 0.00 0.68 0.00 70 1031.5
20210801134051 58 153 0.0 0.0 0.00 0.68 0.00 70 1031.5
20210801133551 58 153 0.0 0.0 0.00 0.68 0.00 68 1031.5
20210801133142 59 153 0.0 0.0 0.00 0.68 0.00 68 1031.5
20210801132600 59 153 0.0 0.0 0.00 0.68 0.00 71 1031.5
20210801132050 59 153 0.0 0.0 0.00 0.68 0.00 68 1031.4
20210801131728 58 153 0.0 0.0 0.00 0.68 0.00 67 1031.4
20210801131047 58 153 0.0 0.0 0.00 0.68 0.00 67 1031.4
20210801130559 58 153 0.0 0.0 0.00 0.68 0.00 67 1031.3
20210801130138 58 153 0.0 0.0 0.00 0.68 0.00 67 1031.3
20210801125605 58 153 0.0 0.0 0.00 0.69 0.00 68 1031.3
20210801125044 58 153 0.0 0.0 0.00 0.69 0.00 69 1031.2
20210801124608 58 153 0.0 0.0 0.00 0.69 0.00 70 1031.1
20210801124044 57 153 0.0 0.0 0.00 0.69 0.00 70 1031.2
20210801123542 57 153 0.0 0.0 0.00 0.69 0.00 70 1031.2
20210801123238 57 153 0.0 0.0 0.00 0.69 0.00 69 1031.2
20210801122048 57 270 0.0 0.0 0.00 0.69 0.00 69 1031.1
20210801121705 57 360 0.0 0.0 0.00 0.69 0.00 71 1031.2
20210801121039 58 360 0.0 0.0 0.00 0.69 0.00 70 1031.1
20210801120540 57 360 0.0 0.0 0.00 0.69 0.00 70 1031.0
20210801120152 57 360 0.0 0.0 0.00 0.69 0.00 70 1030.9
20210801115537 58 360 0.0 0.0 0.00 0.70 0.00 71 1030.9
20210801115036 58 360 0.0 0.0 0.00 0.70 0.00 71 1030.9
20210801114637 58 360 0.0 0.0 0.00 0.70 0.00 70 1030.9
20210801114037 58 360 0.0 0.0 0.00 0.70 0.00 70 1030.9
20210801113536 58 360 0.0 0.0 0.00 0.70 0.00 71 1030.9
20210801113055 58 360 0.0 0.0 0.00 0.70 0.00 71 1030.8
20210801112536 58 360 0.0 0.0 0.00 0.70 0.00 73 1030.9
20210801112052 58 360 0.0 0.0 0.00 0.70 0.00 72 1030.8
20210801111536 57 360 0.0 0.0 0.00 0.70 0.00 70 1030.9
20210801111041 57 360 0.0 0.0 0.00 0.70 0.00 69 1030.8
20210801110543 57 360 0.0 0.0 0.00 0.70 0.00 70 1030.7
20210801110046 57 360 0.0 0.0 0.00 0.70 0.00 69 1030.7
20210801105538 58 16 0.0 0.0 0.00 0.70 0.00 69 1030.7
20210801105034 58 16 0.0 0.0 0.00 0.70 0.00 70 1030.7
20210801104603 57 10 0.0 0.0 0.00 0.70 0.00 68 1030.7
20210801104034 57 9 0.0 0.0 0.00 0.70 0.00 68 1030.6
20210801103545 57 9 0.0 0.0 0.00 0.70 0.00 69 1030.7
20210801103124 57 9 0.0 0.0 0.00 0.70 0.00 71 1030.6
20210801102533 57 88 0.0 0.0 0.00 0.70 0.00 71 1030.6
20210801102049 57 88 0.0 0.0 0.00 0.70 0.00 72 1030.5
20210801101544 57 88 0.0 0.0 0.00 0.70 0.00 72 1030.4
20210801101050 57 88 0.0 0.0 0.00 0.70 0.00 72 1030.5
20210801100534 57 88 0.0 0.0 0.00 0.70 0.00 74 1030.5
20210801100101 58 86 0.0 0.0 0.00 0.70 0.00 75 1030.4
20210801095537 58 86 0.0 0.0 0.00 0.70 0.00 76 1030.4
20210801095030 58 86 0.0 0.0 0.00 0.70 0.00 76 1030.3
20210801094654 58 111 0.0 0.0 0.00 0.70 0.00 75 1030.3
20210801094030 58 270 0.0 0.0 0.00 0.70 0.00 72 1030.3
20210801093530 57 270 0.0 0.0 0.00 0.70 0.00 73 1030.2
20210801093117 57 270 0.0 0.0 0.00 0.70 0.00 76 1030.1
20210801092528 56 270 0.0 0.0 0.00 0.70 0.00 78 1030.0
20210801092040 57 270 0.0 0.0 0.00 0.70 0.00 79 1030.0
20210801091553 57 270 0.0 0.0 0.00 0.70 0.00 79 1029.9
20210801091027 57 350 0.0 0.0 0.00 0.70 0.00 80 1030.0
20210801090525 57 350 0.0 2.6 0.00 0.70 0.00 80 1029.8
20210801090108 57 355 0.0 2.6 0.00 0.70 0.00 81 1029.8
20210801085524 57 270 0.0 0.0 0.00 0.70 0.00 82 1029.7
20210801085033 57 270 0.0 0.0 0.00 0.70 0.00 83 1029.8
20210801084558 57 270 0.0 0.0 0.00 0.70 0.00 83 1030.0
20210801084021 57 270 0.0 0.0 0.00 0.70 0.00 83 1030.0
20210801083532 58 270 0.0 0.0 0.00 0.70 0.00 83 1030.1
20210801083051 58 270 0.0 0.9 0.00 0.70 0.00 83 1030.1
20210801082535 58 270 0.0 0.9 0.00 0.70 0.00 83 1030.1
20210801082043 58 270 0.0 0.0 0.00 0.70 0.00 83 1030.1
20210801081603 58 270 0.0 0.0 0.00 0.70 0.00 83 1030.2
20210801081032 58 270 0.0 0.0 0.00 0.70 0.00 83 1030.2
20210801080518 58 270 0.0 0.0 0.00 0.70 0.00 84 1030.2
20210801080025 58 270 0.0 0.0 0.00 0.70 0.00 84 1030.4
20210801075518 58 270 0.0 0.0 0.00 0.76 0.00 85 1030.4
20210801075056 58 270 0.0 0.0 0.00 0.76 0.00 85 1030.5
20210801074529 58 270 0.0 0.0 0.00 0.76 0.00 85 1030.6
20210801074016 58 270 0.0 0.0 0.00 0.76 0.00 85 1030.7
20210801073515 58 270 0.0 0.0 0.00 0.76 0.00 85 1030.6
20210801073023 58 270 0.0 0.0 0.00 0.76 0.00 84 1030.7
20210801072515 58 270 0.0 0.0 0.00 0.76 0.00 84 1030.7
20210801072017 58 270 0.0 0.0 0.00 0.76 0.00 85 1030.8
20210801071533 58 270 0.0 0.0 0.00 0.76 0.00 85 1030.8
20210801071013 58 270 0.0 0.0 0.00 0.76 0.00 84 1030.9
20210801070555 58 270 0.0 0.0 0.00 0.76 0.00 84 1030.8
20210801070022 58 270 0.0 0.0 0.00 0.76 0.00 84 1030.9
20210801065513 58 270 0.0 0.0 0.00 0.78 0.00 85 1030.9
20210801065021 58 270 0.0 0.0 0.00 0.78 0.00 85 1030.9
20210801064525 58 270 0.0 0.0 0.00 0.78 0.00 85 1031.1
20210801064011 58 270 0.0 0.0 0.00 0.78 0.00 85 1031.1
20210801063511 58 270 0.0 0.0 0.00 0.78 0.00 84 1031.1
20210801063013 58 270 0.0 0.0 0.00 0.78 0.00 84 1031.3
20210801062534 58 270 0.0 0.0 0.00 0.78 0.00 84 1031.3
20210801062009 58 270 0.0 0.0 0.00 0.78 0.00 85 1031.3
20210801061532 58 270 0.0 0.0 0.00 0.78 0.00 85 1031.2
20210801061016 58 25 0.0 0.0 0.00 0.78 0.00 85 1031.1
20210801060530 58 27 0.0 0.0 0.00 0.78 0.00 85 1031.2
20210801060014 58 27 0.0 0.0 0.00 0.78 0.00 85 1031.1
20210801055514 58 27 0.0 0.0 0.00 0.78 0.78 85 1031.0
20210801055012 58 27 0.0 0.0 0.00 0.78 0.78 85 1031.1
20210801054517 58 27 0.0 0.0 0.00 0.78 0.78 85 1031.1
20210801054028 58 27 0.0 0.0 0.00 0.78 0.78 84 1031.1
20210801053506 58 30 0.0 0.0 0.00 0.78 0.78 83 1031.0
20210801053006 58 30 0.0 0.0 0.00 0.78 0.78 84 1031.0
20210801052504 58 30 0.0 0.0 0.00 0.78 0.78 84 1030.9
20210801052006 58 30 0.0 0.0 0.00 0.78 0.78 83 1031.0
20210801051506 58 30 0.0 0.0 0.00 0.78 0.78 83 1030.9
20210801051004 58 23 0.0 0.0 0.00 0.78 0.78 83 1030.9
20210801050505 58 27 0.0 0.0 0.00 0.78 0.78 83 1031.0
20210801050011 58 24 0.0 0.0 0.00 0.78 0.78 83 1030.9
20210801045503 58 21 0.0 0.0 0.00 0.78 0.78 82 1031.0
20210801045005 58 19 0.0 0.9 0.00 0.78 0.78 82 1030.9
20210801044504 58 17 0.0 0.9 0.00 0.78 0.78 82 1030.9
20210801044006 58 347 0.0 1.7 0.00 0.78 0.78 82 1030.9
20210801043506 58 12 0.0 5.2 0.00 0.78 0.78 82 1030.9
20210801043016 58 17 0.0 5.2 0.00 0.78 0.78 82 1030.8
20210801042504 58 15 0.0 1.7 0.00 0.78 0.78 82 1030.7
20210801042006 58 15 0.0 0.9 0.00 0.78 0.78 82 1030.7
20210801041501 58 8 0.0 1.7 0.00 0.78 0.78 82 1030.7
20210801040600 58 17 0.0 0.0 0.00 0.78 0.78 82 1030.6
20210801040204 58 13 0.0 2.6 0.00 0.78 0.78 82 1030.7
20210801035640 59 12 0.0 1.7 0.00 0.78 0.78 82 1030.6
20210801035100 59 11 0.0 0.0 0.00 0.78 0.78 82 1030.6
20210801034654 59 25 0.0 3.5 0.00 0.78 0.78 82 1030.5
20210801034103 59 35 0.0 3.5 0.00 0.78 0.78 82 1030.5
20210801033602 58 36 0.0 2.6 0.00 0.78 0.78 82 1030.4
20210801033310 58 19 0.0 0.9 0.00 0.78 0.78 81 1030.4
20210801032611 58 4 0.0 0.0 0.00 0.78 0.78 81 1030.4
20210801032056 58 15 0.0 0.0 0.00 0.78 0.78 81 1030.3
20210801031619 58 4 0.0 0.0 0.00 0.78 0.78 81 1030.3
20210801031111 58 5 0.0 1.7 0.00 0.78 0.78 82 1030.1
20210801030600 58 12 0.0 1.7 0.00 0.78 0.78 81 1030.1
20210801030157 58 16 0.0 1.7 0.00 0.78 0.78 81 1030.0
20210801025605 58 360 0.0 1.7 0.00 0.78 0.78 80 1029.9
20210801025052 58 4 0.0 1.7 0.00 0.78 0.78 81 1029.9
20210801024710 59 17 0.0 2.6 0.00 0.78 0.78 81 1029.9
20210801024111 59 355 0.0 0.0 0.00 0.78 0.78 81 1029.7
20210801023552 59 4 0.0 0.0 0.00 0.78 0.78 81 1029.7
20210801023134 59 360 0.0 2.6 0.00 0.78 0.78 81 1029.6
20210801022612 59 352 0.0 2.6 0.00 0.78 0.78 82 1029.6
20210801022056 59 352 0.0 1.7 0.00 0.78 0.78 82 1029.5
20210801021712 59 2 0.0 0.0 0.01 0.78 0.78 83 1029.5
20210801021049 59 350 0.0 2.6 0.01 0.78 0.78 84 1029.4
20210801020610 58 17 0.0 2.6 0.01 0.78 0.78 85 1029.4
20210801020117 58 270 0.0 0.0 0.01 0.78 0.78 87 1029.4
20210801015603 57 4 0.0 0.0 0.01 0.78 0.78 89 1029.3
20210801015047 57 270 0.0 0.0 0.01 0.78 0.78 90 1029.2
20210801014622 57 270 0.0 0.0 0.01 0.78 0.78 90 1029.2
20210801014046 57 270 0.0 0.0 0.01 0.78 0.78 90 1029.2
20210801013546 57 270 0.0 0.0 0.01 0.78 0.78 90 1029.2
20210801013216 57 270 0.0 0.0 0.01 0.78 0.78 90 1029.1
20210801012549 57 270 0.0 0.9 0.01 0.78 0.78 89 1029.1
20210801012045 57 270 0.0 1.7 0.01 0.78 0.78 89 1029.1
20210801011706 57 352 0.0 1.7 0.00 0.77 0.77 88 1029.1
20210801011113 57 270 0.0 1.7 0.00 0.77 0.77 87 1029.1
20210801010554 58 352 0.0 0.9 0.00 0.77 0.77 86 1029.0
20210801010134 58 351 0.0 3.5 0.00 0.77 0.77 87 1029.0
20210801005550 58 2 0.0 4.3 0.00 0.77 0.77 88 1028.9
20210801005052 58 358 0.0 2.6 0.01 0.77 0.77 88 1028.9
20210801004725 58 10 0.0 2.6 0.01 0.77 0.77 88 1028.7
20210801004141 58 356 0.0 6.1 0.02 0.77 0.77 89 1028.7
20210801003545 57 346 0.9 7.0 0.03 0.77 0.77 88 1028.7
20210801003150 57 270 0.0 7.0 0.03 0.77 0.77 89 1028.7
20210801002540 57 11 0.9 3.5 0.03 0.77 0.77 90 1028.7
20210801002039 57 32 1.7 3.5 0.03 0.77 0.77 91 1028.7
20210801001608 57 21 0.0 5.2 0.04 0.77 0.77 92 1028.6
20210801001040 57 12 0.0 1.7 0.05 0.77 0.77 93 1028.6
20210801000538 57 23 0.0 1.7 0.06 0.77 0.77 94 1028.6
20210801000102 57 63 0.0 0.0 0.07 0.77 0.77 93 1028.6
20210731235544 57 63 0.0 0.0 0.08 0.77 0.77 93 1028.6
20210731235107 57 73 0.0 0.0 0.08 0.76 0.76 93 1028.5
20210731234636 57 52 0.0 0.0 0.09 0.76 0.76 93 1028.5
20210731234037 57 52 0.0 1.7 0.09 0.75 0.75 93 1028.5
20210731233536 57 34 0.0 1.7 0.08 0.74 0.74 93 1028.5
20210731233053 57 31 0.0 4.3 0.10 0.74 0.74 93 1028.4
20210731232551 57 33 0.9 4.3 0.12 0.74 0.74 93 1028.4
20210731232044 57 17 0.0 3.5 0.16 0.74 0.74 93 1028.4
20210731231654 57 352 0.0 0.9 0.18 0.73 0.73 93 1028.3
20210731231034 57 352 0.0 3.5 0.19 0.72 0.72 93 1028.3
20210731230616 57 350 0.0 3.5 0.24 0.71 0.71 93 1028.4
20210731230043 57 347 0.0 6.1 0.28 0.70 0.70 93 1028.4
20210731225544 57 352 0.0 6.1 0.28 0.69 0.69 93 1028.1
20210731225037 57 21 0.0 1.7 0.34 0.68 0.68 93 1028.1
20210731224716 57 20 0.0 2.6 0.34 0.67 0.67 93 1028.1
20210731224050 57 357 0.0 2.6 0.34 0.66 0.66 93 1028.0
20210731223531 57 23 0.9 3.5 0.35 0.66 0.66 93 1028.0
20210731223114 57 26 0.9 3.5 0.34 0.64 0.64 93 1027.9
20210731222530 57 15 0.9 2.6 0.33 0.62 0.62 93 1027.9
20210731222102 57 14 0.9 2.6 0.30 0.57 0.57 93 1027.9
20210731221632 58 26 1.7 4.3 0.28 0.54 0.54 93 1027.8
20210731221030 58 40 0.0 2.6 0.28 0.52 0.52 93 1027.8
20210731220527 58 33 0.0 1.7 0.27 0.47 0.47 93 1027.7
20210731220043 59 36 0.0 1.7 0.26 0.42 0.42 93 1027.7
20210731215526 59 29 0.0 0.9 0.25 0.39 0.39 93 1027.5
20210731215026 59 23 0.0 0.0 0.22 0.34 0.34 93 1027.5
20210731214536 59 270 0.0 0.0 0.21 0.32 0.32 92 1027.4
20210731214033 59 270 0.0 0.0 0.22 0.32 0.32 92 1027.4
20210731213539 59 270 0.0 0.0 0.21 0.31 0.31 92 1027.3
20210731213049 59 270 0.0 0.0 0.20 0.30 0.30 92 1027.3
20210731212525 59 270 0.0 0.0 0.19 0.28 0.28 91 1027.1
20210731212028 59 270 0.0 0.0 0.17 0.27 0.27 91 1027.2
20210731211550 59 270 0.0 0.0 0.15 0.25 0.25 90 1027.2
20210731211022 60 343 0.0 0.0 0.12 0.22 0.22 89 1027.1
20210731210521 60 358 0.0 0.0 0.10 0.20 0.20 87 1027.0
20210731210031 61 4 0.0 0.0 0.06 0.16 0.16 85 1026.9
20210731205530 62 355 0.0 0.0 0.04 0.14 0.14 83 1026.9
20210731205019 63 94 0.0 0.0 0.02 0.12 0.12 79 1026.8
20210731204533 63 94 0.0 0.0 0.01 0.11 0.11 81 1026.9
20210731204035 64 94 0.0 0.0 0.00 0.10 0.10 79 1026.8
20210731203530 64 94 0.0 0.0 0.00 0.10 0.10 77 1026.8
20210731203038 64 86 0.0 0.0 0.00 0.10 0.10 77 1026.8
20210731202518 65 106 0.0 0.9 0.00 0.10 0.10 78 1026.7
20210731202018 65 58 0.0 1.7 0.00 0.10 0.10 77 1026.6
20210731201622 64 62 0.0 1.7 0.00 0.10 0.10 78 1026.6